ATLAS D DEB, 2329

Orbit data source: Space-Track

ATLAS D DEB, 2329 is space debris in LEO originally from a launch on Thu, 14 Jul 1966 UTC launched from the Air Force Western Test Range (AFWTR). Debris objects in space refer to the collection of defunct objects orbiting the Earth. Examples of debris include non-operational satellites, rocket bodies, and fragments generated from explosions, collisions, or faulty payload assembly.

Loading next visibility...
Identifier
2329, 1966-063D
Orbit
LEO
Country
Flag of USUS
Related business
Manufacturer
Goodyear
Mission
Spacecraft
Bus & Motor
CONTAINER, Unknown motor
Mass
2 kg wet, 2 kg dry
Launch date (UTC)
1966-07-14 (60 years ago)
Launch vehicle
Unknown
Launch site
Air Force Western Test Range (AFWTR)
Object type
Payload
Rocket body
Debris
Shape & HBR
Unknown
Radar Cross Section
Medium (>0.1 m² and <1 m²)

Expand to show TLE details & history
Last TLE update: 12 hours ago

TLE from 12 hours ago
0 ATLAS D DEB
1  2329U 66063D   26035.53488653  .00001061  00000-0  60928-3 0  9991
2  2329 144.2853 145.7880 0023283 356.8277  26.9805 13.92453750  3680
Epoch: 2026-02-04T12:50Z
TLE epoch observation values (Epoch: 2026-02-04T12:50:14.196Z)
Latitude
13.73437°
Longitude
158.76375°
Altitude
903.218 km
Speed
7.411 km/s
True Right ascension
08h 24m 05s
True Declination
13° 39' 25"
Sunlit
Object was in full shadow at epoch
Visualization orbit readout
Latitude
Unknown
Longitude
Unknown
Altitude
Unknown
Speed
Unknown
Apparent Right ascension
Unknown
Apparent Declination
Unknown
Sunlit
N/A
Visualization observer readout
Local Sidereal Time
03:10:24
Azimuth
Unknown
Elevation
Unknown
Doppler factor
Unknown
Orbital elements
Apogee altitude
939.999 km
Perigee altitude
906.001 km
Semi-major axis
7,301.137 km
Eccentricity
0.00233
Inclination
144.2853°
RAAN
145.788°
Arg. of periapsis
356.8277°
True anomaly
27.10186°
Mean anomaly
26.9805°
Eccentric anomaly
27.04115°
Mean motion
3.47902 °/min
Orbital period
103.48 mins
BSTAR
0.00060928
Loading maneuver chart data...
Computing Atmospheric mass density...
Loading historical data...
Loading historical data...
Loading historical data...
Loading historical data...
Loading historical data...
Loading historical data...
Loading historical data...

Documentation

Showing up to 5 results
|